Moore, Oklahoma, United States
Lat: 35.34N, Lon: 97.49W
Wx Zone: OKZ029
Local Info
Past Weather Observations for Saturday, September 20, 2014

NOTE: This archive is for the closest National Weather Service station to Moore. Information may differ from the station used for current weather conditions.

Click here for Long-term Archive

Time Weather Temperature Dewpoint Humidity Pressure Winds Precip Visibility
23:52
Partly Cloudy
72°F / 22°C 66°F / 19°C 83% 30.04 in
(1017 mb)
S 5.8 mph
(S 9 kph)
- 10SM
22:52
Clear
72°F / 22°C 66°F / 19°C 83% 30.04 in
(1017 mb)
S 6.9 mph
(S 11 kph)
- 10SM
21:52
Clear
72°F / 22°C 66°F / 19°C 83% 30.04 in
(1017 mb)
SSE 4.6 mph
(SSE 7 kph)
- 10SM
20:52
Clear
73°F / 23°C 66°F / 19°C 78% 30.04 in
(1017 mb)
S 3.5 mph
(S 6 kph)
- 10SM
19:52
Partly Cloudy
75°F / 24°C 66°F / 19°C 74% 30.01 in
(1016 mb)
SSE 8.1 mph
(SSE 13 kph)
- 10SM
18:52
Partly Cloudy
79°F / 26°C 66°F / 19°C 65% 30.01 in
(1016 mb)
SE 6.9 mph
(SE 11 kph)
- 10SM
17:52
Partly Cloudy
84°F / 29°C 66°F / 19°C 55% 29.98 in
(1015 mb)
SSE 6.9 mph
(SSE 11 kph)
- 10SM
16:52
Partly Cloudy
88°F / 31°C 66°F / 19°C 49% 29.98 in
(1015 mb)
SE 9.2 mph
(SE 15 kph)
- 10SM
15:52
Partly Cloudy
88°F / 31°C 66°F / 19°C 49% 29.98 in
(1015 mb)
SSE 9.2 mph
(SSE 15 kph)
- 10SM
14:52
Partly Cloudy
88°F / 31°C 66°F / 19°C 49% 29.98 in
(1015 mb)
SSE 11.5 mph
(SSE 19 kph)
- 10SM
13:52
Mostly Cloudy
84°F / 29°C 66°F / 19°C 55% 30.01 in
(1016 mb)
SSE 10.4 mph
(SSE 17 kph)
- 10SM
12:52
Mostly Cloudy
84°F / 29°C 66°F / 19°C 55% 30.04 in
(1017 mb)
SSE 8.1 mph
(SSE 13 kph)
- 10SM
11:52
Mostly Cloudy
Partly Cloudy
84°F / 29°C 68°F / 20°C 58% 30.04 in
(1017 mb)
S 8.1 mph
(S 13 kph)
- 10SM
10:52
Mostly Cloudy
82°F / 28°C 68°F / 20°C 62% 30.06 in
(1018 mb)
S 9.2 mph
(S 15 kph)
- 10SM
10:22
Mostly Cloudy
81°F / 27°C 70°F / 21°C 70% 30.06 in
(1018 mb)
S 6.9 mph
(S 11 kph)
- 10SM
09:52
Mostly Cloudy
81°F / 27°C 70°F / 21°C 70% 30.06 in
(1018 mb)
S 9.2 mph
(S 15 kph)
- 10SM
08:52
Mostly Cloudy
75°F / 24°C 70°F / 21°C 83% 30.04 in
(1017 mb)
S 10.4 mph
(S 17 kph)
- 8SM
08:22
Mostly Cloudy
Fog And Mist
73°F / 23°C 70°F / 21°C 89% 30.04 in
(1017 mb)
S 8.1 mph
(S 13 kph)
- 5SM
07:52
Mostly Cloudy
Fog And Mist
72°F / 22°C 70°F / 21°C 94% 30.04 in
(1017 mb)
S 6.9 mph
(S 11 kph)
- 2SM
07:41
Mostly Cloudy
Fog And Mist
72°F / 22°C 70°F / 21°C 94% 30.04 in
(1017 mb)
S 9.2 mph
(S 15 kph)
- 2SM
07:33
Mostly Cloudy
Fog And Mist
72°F / 22°C 68°F / 20°C 88% 30.04 in
(1017 mb)
S 6.9 mph
(S 11 kph)
- 3SM
07:23
Mostly Cloudy
Fog And Mist
72°F / 22°C 68°F / 20°C 88% 30.04 in
(1017 mb)
S 6.9 mph
(S 11 kph)
- 2 1/2SM
06:52
Partly Cloudy
Fog And Mist
70°F / 21°C 68°F / 20°C 94% 30.01 in
(1016 mb)
S 4.6 mph
(S 7 kph)
- 3SM
05:52
Mostly Cloudy
Fog And Mist
70°F / 21°C 66°F / 19°C 88% 30.01 in
(1016 mb)
S 4.6 mph
(S 7 kph)
- 4SM
04:52
Mostly Cloudy
Fog And Mist
70°F / 21°C 66°F / 19°C 88% 30.01 in
(1016 mb)
SSE 6.9 mph
(SSE 11 kph)
- 4SM
03:52
Mostly Cloudy
Fog And Mist
70°F / 21°C 68°F / 20°C 94% 30.01 in
(1016 mb)
SSE 5.8 mph
(SSE 9 kph)
- 5SM
02:52
Mostly Cloudy
Fog And Mist
70°F / 21°C 66°F / 19°C 88% 30.01 in
(1016 mb)
SSE 5.8 mph
(SSE 9 kph)
- 6SM
01:52
Mostly Cloudy
70°F / 21°C 66°F / 19°C 88% 30.01 in
(1016 mb)
SSE 5.8 mph
(SSE 9 kph)
- 7SM
00:52
Partly Cloudy
70°F / 21°C 66°F / 19°C 88% 30.01 in
(1016 mb)
S 4.6 mph
(S 7 kph)
- 8SM
Time Weather Temperature Dewpoint Humidity Pressure Winds Precip Visibility


Weather for websites

WeatherForYou.com, LLC is not responsible for any damages or problems caused by this service. Current weather conditions are obtained from the closest station including government and personal stations which may have varying degrees of accuracy. Weather forecasts are derived from the NOAA NDFD. Like all things, this site belongs to Jesus Christ... He just trusts me to maintain it. If you have any questions or comments email webmaster@weatherforyou.com

Copyright © 2014, WeatherForYou.com LLC. All rights reserved.